When you browse on this site, cookies collect data to enhance your experience and personalize the content and advertising you see.
Visit our Privacy Policy to learn more. By continuing to use the site, you agree to this use of cookies and data.

Hourly Weather Ashtarak

Today, 8 August, Saturday

Time Temperature Precipitation Wind Pressure Humidity
00:00 +19°C° 0 mm 2 mps 659 mmHg 56%
01:00 +18°C° 0 mm 2 mps 658 mmHg 55%
02:00 +18°C° 0 mm 2 mps 658 mmHg 54%
03:00 +18°C° 0 mm 2 mps 658 mmHg 52%
04:00 +18°C° 0 mm 2 mps 658 mmHg 53%
05:00 +18°C° 0 mm 2 mps 658 mmHg 53%
06:00 +18°C° 0 mm 2 mps 658 mmHg 54%
07:00 +20°C° 0 mm 2 mps 659 mmHg 50%
08:00 +23°C° 0 mm 2 mps 659 mmHg 47%
09:00 +25°C° 0 mm 2 mps 659 mmHg 43%
10:00 +26°C° 0 mm 2 mps 659 mmHg 41%
11:00 +27°C° 0 mm 2 mps 659 mmHg 38%
12:00 +28°C° 0 mm 2 mps 659 mmHg 35%
13:00 +29°C° 0 mm 2 mps 658 mmHg 33%
14:00 +29°C° 0 mm 2 mps 658 mmHg 31%
15:00 +30°C° 0 mm 2 mps 658 mmHg 30%
16:00 +29°C° 0 mm 2 mps 657 mmHg 33%
17:00 +29°C° 0 mm 3 mps 657 mmHg 36%
18:00 +28°C° 0 mm 3 mps 656 mmHg 40%
19:00 +26°C° 0 mm 3 mps 656 mmHg 45%
20:00 +24°C° 0 mm 3 mps 656 mmHg 51%
21:00 +22°C° 0 mm 3 mps 656 mmHg 57%
22:00 +21°C° 0 mm 3 mps 656 mmHg 57%
23:00 +20°C° 0 mm 3 mps 656 mmHg 57%

Tomorrow, 9 August, Sunday

Time Temperature Precipitation Wind Pressure Humidity
00:00 +20°C° 0 mm 2 mps 656 mmHg 57%
01:00 +19°C° 0 mm 2 mps 655 mmHg 57%
02:00 +19°C° 0 mm 2 mps 655 mmHg 58%
03:00 +19°C° 0 mm 2 mps 655 mmHg 58%
04:00 +19°C° 0 mm 2 mps 655 mmHg 58%
05:00 +20°C° 0 mm 1 mps 655 mmHg 59%
06:00 +20°C° 0 mm 1 mps 655 mmHg 59%
07:00 +22°C° 0 mm 1 mps 655 mmHg 52%
08:00 +24°C° 0 mm 1 mps 656 mmHg 46%
09:00 +27°C° 0 mm 1 mps 656 mmHg 39%
10:00 +28°C° 0 mm 2 mps 656 mmHg 35%
11:00 +29°C° 0 mm 2 mps 656 mmHg 32%
12:00 +30°C° 0 mm 2 mps 656 mmHg 29%
13:00 +31°C° 0 mm 2 mps 656 mmHg 27%
14:00 +31°C° 0 mm 2 mps 656 mmHg 26%
15:00 +32°C° 0 mm 2 mps 656 mmHg 25%
16:00 +31°C° 0 mm 2 mps 655 mmHg 28%
17:00 +31°C° 0 mm 2 mps 655 mmHg 31%
18:00 +30°C° 0 mm 2 mps 655 mmHg 34%
19:00 +28°C° 0 mm 2 mps 655 mmHg 39%
20:00 +26°C° 0 mm 3 mps 654 mmHg 45%
21:00 +24°C° 0 mm 3 mps 654 mmHg 50%
22:00 +24°C° 0 mm 3 mps 654 mmHg 50%
23:00 +22°C° 0 mm 3 mps 654 mmHg 49%

Day after tomorrow, 10 August, Monday

Time Temperature Precipitation Wind Pressure Humidity
00:00 +23°C° 0 mm 2 mps 655 mmHg 49%
01:00 +21°C° 0 mm 2 mps 654 mmHg 50%
02:00 +21°C° 0 mm 2 mps 654 mmHg 50%
03:00 +20°C° 0 mm 2 mps 654 mmHg 51%
04:00 +20°C° 0 mm 2 mps 654 mmHg 52%
05:00 +20°C° 0 mm 2 mps 654 mmHg 53%
06:00 +22°C° 0 mm 1 mps 655 mmHg 54%
07:00 +24°C° 0 mm 2 mps 655 mmHg 48%
08:00 +26°C° 0 mm 2 mps 656 mmHg 42%
09:00 +29°C° 0 mm 2 mps 656 mmHg 36%
10:00 +30°C° 0 mm 2 mps 656 mmHg 33%
11:00 +31°C° 0 mm 2 mps 656 mmHg 29%
12:00 +33°C° 0 mm 3 mps 656 mmHg 26%
13:00 +34°C° 0 mm 2 mps 656 mmHg 24%
14:00 +35°C° 0 mm 2 mps 656 mmHg 22%
15:00 +36°C° 0 mm 2 mps 655 mmHg 20%
16:00 +34°C° 0 mm 3 mps 655 mmHg 26%
17:00 +33°C° 0 mm 3 mps 655 mmHg 32%
18:00 +32°C° 0 mm 4 mps 655 mmHg 39%
19:00 +29°C° 0 mm 4 mps 655 mmHg 44%
20:00 +27°C° 0 mm 5 mps 655 mmHg 49%
21:00 +25°C° 0 mm 5 mps 655 mmHg 54%
22:00 +23°C° 0 mm 5 mps 655 mmHg 54%
23:00 +22°C° 0 mm 4 mps 655 mmHg 55%

11 August, Tuesday

Time Temperature Precipitation Wind Pressure Humidity
00:00 +22°C° 0 mm 3 mps 655 mmHg 55%
01:00 +21°C° 0 mm 3 mps 655 mmHg 57%
02:00 +21°C° 0 mm 3 mps 655 mmHg 59%
03:00 +20°C° 0 mm 3 mps 655 mmHg 60%
04:00 +20°C° 0 mm 3 mps 655 mmHg 61%
05:00 +20°C° 0 mm 2 mps 655 mmHg 61%
06:00 +20°C° 0 mm 2 mps 655 mmHg 62%
07:00 +23°C° 0 mm 2 mps 656 mmHg 56%
08:00 +25°C° 0 mm 2 mps 656 mmHg 50%
09:00 +27°C° 0 mm 2 mps 657 mmHg 45%
10:00 +28°C° 0.1 mm 1 mps 657 mmHg 42%
11:00 +30°C° 0.1 mm 1 mps 657 mmHg 39%
12:00 +31°C° 0.1 mm 1 mps 657 mmHg 36%
13:00 +32°C° 0.1 mm 1 mps 656 mmHg 34%
14:00 +32°C° 0.1 mm 1 mps 656 mmHg 31%
15:00 +33°C° 0.1 mm 1 mps 656 mmHg 28%
16:00 +32°C° 0.1 mm 2 mps 656 mmHg 33%
17:00 +31°C° 0.1 mm 3 mps 655 mmHg 37%
18:00 +30°C° 0.1 mm 4 mps 655 mmHg 41%
19:00 +28°C° 0 mm 4 mps 655 mmHg 46%
20:00 +26°C° 0 mm 4 mps 655 mmHg 51%
21:00 +23°C° 0 mm 5 mps 655 mmHg 56%
22:00 +22°C° 0 mm 4 mps 655 mmHg 57%
23:00 +22°C° 0 mm 3 mps 655 mmHg 58%

12 August, Wednesday

Time Temperature Precipitation Wind Pressure Humidity
00:00 +21°C° 0 mm 3 mps 655 mmHg 59%
01:00 +21°C° 0 mm 3 mps 655 mmHg 60%
02:00 +20°C° 0 mm 3 mps 655 mmHg 61%
03:00 +20°C° 0 mm 3 mps 655 mmHg 63%
04:00 +20°C° 0 mm 3 mps 655 mmHg 63%
05:00 +20°C° 0 mm 3 mps 655 mmHg 63%
06:00 +20°C° 0 mm 3 mps 655 mmHg 64%
07:00 +23°C° 0 mm 2 mps 656 mmHg 58%
08:00 +25°C° 0 mm 2 mps 656 mmHg 52%
09:00 +27°C° 0 mm 1 mps 656 mmHg 47%
10:00 +28°C° 0.1 mm 1 mps 657 mmHg 44%
11:00 +29°C° 0.1 mm 1 mps 657 mmHg 41%
12:00 +31°C° 0.1 mm 1 mps 657 mmHg 39%
13:00 +31°C° 0.1 mm 2 mps 656 mmHg 37%
14:00 +32°C° 0.1 mm 2 mps 656 mmHg 35%
15:00 +32°C° 0.1 mm 2 mps 656 mmHg 34%
16:00 +31°C° 0.1 mm 3 mps 655 mmHg 38%
17:00 +30°C° 0.1 mm 3 mps 655 mmHg 42%
18:00 +29°C° 0.1 mm 4 mps 655 mmHg 46%
19:00 +28°C° 0 mm 4 mps 655 mmHg 50%
20:00 +26°C° 0 mm 4 mps 655 mmHg 55%
21:00 +23°C° 0 mm 4 mps 655 mmHg 59%
22:00 +23°C° 0 mm 4 mps 655 mmHg 60%
23:00 +22°C° 0 mm 3 mps 655 mmHg 62%

13 August, Thursday

Time Temperature Precipitation Wind Pressure Humidity
00:00 +21°C° 0 mm 3 mps 655 mmHg 63%
01:00 +21°C° 0 mm 3 mps 655 mmHg 63%
02:00 +21°C° 0 mm 3 mps 655 mmHg 63%
03:00 +20°C° 0 mm 2 mps 654 mmHg 63%
04:00 +20°C° 0 mm 2 mps 654 mmHg 64%
05:00 +20°C° 0 mm 2 mps 655 mmHg 64%
06:00 +20°C° 0 mm 2 mps 655 mmHg 64%
07:00 +23°C° 0 mm 2 mps 655 mmHg 58%
08:00 +25°C° 0 mm 2 mps 655 mmHg 51%
09:00 +27°C° 0 mm 1 mps 655 mmHg 45%
10:00 +28°C° 0.1 mm 1 mps 655 mmHg 42%
11:00 +30°C° 0.1 mm 2 mps 655 mmHg 39%
12:00 +31°C° 0.1 mm 2 mps 655 mmHg 36%
13:00 +32°C° 0.2 mm 2 mps 655 mmHg 34%
14:00 +32°C° 0.2 mm 2 mps 655 mmHg 32%
15:00 +34°C° 0.2 mm 2 mps 655 mmHg 30%
16:00 +33°C° 0.1 mm 3 mps 654 mmHg 35%
17:00 +30°C° 0.1 mm 3 mps 654 mmHg 40%
18:00 +29°C° 0.1 mm 4 mps 654 mmHg 45%
19:00 +27°C° 0.2 mm 4 mps 654 mmHg 50%
20:00 +25°C° 0.2 mm 4 mps 654 mmHg 55%
21:00 +23°C° 0.2 mm 4 mps 655 mmHg 61%
22:00 +22°C° 0.2 mm 4 mps 655 mmHg 61%
23:00 +22°C° 0.2 mm 4 mps 655 mmHg 62%
Show more